Theta_e
304 304 304 305 305 306 306 306 307 312 313 311 309 309 310 311 310 311 311 314 315 317 321 320 321 318 322 322 323 323 319 320 321 323 325 327 326 338 337 339 338 338 349 353 352
304 304 305 305 305 306 307 307 307 310 313 311 309 309 311 312 311 311 312 313 315 318 317 318 319 320 320 322 322 322 320 322 323 324 325 326 325 333 331 332 338 344 352 352 351
304 304 305 305 306 307 307 307 307 313 312 311 309 309 311 312 312 312 316 313 318 318 319 320 318 318 320 321 321 322 321 323 325 326 326 325 325 328 328 328 342 349 349 350 350
304 305 305 305 306 308 307 307 308 313 313 310 309 309 310 311 315 321 320 316 318 319 319 318 319 320 317 316 321 319 322 323 324 325 325 323 326 325 330 331 342 345 346 348 349
307 307 306 306 306 308 307 307 311 314 314 310 309 309 310 312 311 320 319 318 317 319 319 317 318 319 316 318 320 319 320 322 324 326 325 325 324 324 325 330 340 340 340 343 344
307 308 308 307 307 308 308 310 312 314 314 312 309 309 310 313 318 318 318 318 317 318 317 316 317 318 319 319 318 321 322 322 323 324 324 323 324 325 325 329 340 340 339 341 342
307 307 308 309 307 308 309 312 313 313 314 313 310 310 312 311 317 320 319 317 316 316 315 315 318 318 319 317 321 321 319 321 322 323 321 324 321 322 325 330 338 338 337 338 339
307 308 308 308 309 308 309 312 313 313 313 312 311 310 311 317 318 318 318 317 316 315 315 317 318 319 319 320 320 318 317 318 320 321 323 322 321 322 325 332 336 337 336 336 337
308 308 309 308 310 309 308 310 315 317 315 313 312 311 316 319 319 318 318 318 317 317 318 318 318 319 319 316 315 316 317 318 321 322 322 320 320 323 325 328 331 332 332 332 332
308 309 309 308 310 309 315 316 320 319 316 314 313 316 318 321 319 317 316 318 318 318 317 318 317 315 313 314 316 316 318 318 319 321 321 319 319 321 324 326 327 331 331 330 330
308 309 310 309 310 311 316 315 315 319 318 319 320 318 321 321 318 316 315 317 317 317 315 317 313 312 313 314 316 317 318 319 321 321 321 320 320 321 323 323 324 327 330 330 328
309 309 310 310 316 316 317 316 314 314 315 316 317 318 322 322 321 318 316 317 317 314 315 315 314 315 317 316 316 317 316 317 318 319 320 322 324 322 322 322 323 325 328 329 328
309 309 310 310 317 316 316 314 314 314 317 318 318 318 318 317 318 319 318 317 316 316 315 315 317 319 318 318 318 316 316 316 317 319 319 320 324 322 322 322 324 324 325 326 326
308 309 309 310 315 316 313 312 313 315 317 320 321 320 320 320 320 320 319 318 317 317 318 317 318 319 319 319 319 318 319 319 319 319 317 318 318 322 322 322 323 323 324 325 325
308 308 309 310 312 314 311 311 312 316 326 324 320 320 320 320 321 320 319 319 316 317 319 319 319 318 319 319 320 319 320 318 320 319 317 317 315 317 320 321 321 320 323 325 325
307 307 309 311 311 310 310 312 314 319 325 322 321 320 319 319 320 320 321 320 319 317 317 317 319 319 319 320 320 320 320 318 317 317 317 316 315 316 318 320 321 322 323 323 324
306 308 310 311 310 310 311 313 318 322 323 320 319 319 318 318 318 319 320 318 317 318 317 318 319 319 320 319 319 320 319 318 318 317 319 319 318 318 320 321 322 322 324 323 324
305 311 312 311 311 309 313 314 320 321 317 317 316 318 319 318 318 319 318 317 319 318 318 318 319 319 320 319 318 318 317 318 321 321 320 319 321 322 320 321 322 326 326 324 324
307 313 313 310 311 310 314 315 316 316 313 313 315 318 317 315 315 316 317 319 319 318 323 325 321 320 320 320 319 319 318 317 319 320 320 320 320 321 321 322 322 325 325 325 325
308 313 310 310 308 313 314 315 314 312 311 311 312 313 313 313 313 314 315 318 317 316 315 321 325 324 324 324 322 320 320 321 319 319 320 321 321 322 324 323 323 322 323 325 326
310 313 309 310 311 313 316 313 311 310 309 309 309 310 310 310 310 312 315 315 312 314 314 317 321 324 323 324 323 322 321 320 320 322 324 323 322 324 327 325 324 322 325 325 325
309 312 309 308 312 311 308 309 308 309 308 308 309 308 308 308 310 310 312 312 308 311 312 309 316 320 321 320 320 321 323 321 321 320 321 321 322 321 324 323 324 325 325 325 324
308 311 308 308 307 307 308 308 308 308 307 306 307 306 306 306 307 308 309 308 307 308 311 309 311 314 316 317 319 322 322 319 320 324 323 319 321 322 323 323 325 323 324 324 323
308 308 307 306 306 307 307 308 307 306 305 305 305 305 305 304 303 304 304 305 305 306 308 307 310 311 312 312 311 313 315 316 322 322 324 324 322 321 323 324 322 323 325 324 323
305 306 304 304 305 306 307 306 307 305 305 304 304 304 303 302 303 302 303 303 304 305 305 306 309 309 308 307 309 310 311 313 314 317 324 323 323 322 322 321 321 322 323 324 324
305 305 304 304 306 306 306 307 305 305 304 305 304 304 303 302 302 302 301 301 302 303 303 303 305 305 304 305 307 308 309 311 311 312 313 320 321 319 320 319 318 318 320 323 322
302 303 303 304 305 305 305 306 305 305 305 304 304 303 304 304 304 303 303 302 301 301 300 301 302 303 303 303 305 306 307 309 311 312 313 312 316 317 315 321 317 317 316 316 320
Wind_Speed
20 21 21 21 21 20 20 18 16 16 16 16 14 13 12 14 16 20 27 23 14 13 6 9 9 13 12 17 18 16 2 7 9 14 18 25 15 16 16 39 17 11 37 40 34
23 23 23 23 23 22 21 19 17 15 16 14 13 12 11 13 17 28 29 20 19 11 19 11 14 15 16 14 13 10 5 13 10 18 17 23 26 9 15 20 28 30 35 39 35
24 24 24 24 25 24 23 18 15 14 14 13 11 11 10 10 17 24 13 22 18 13 16 13 14 19 23 23 25 11 12 11 17 32 25 27 23 19 22 7 33 40 39 37 36
25 25 24 24 24 24 20 16 12 12 13 12 8 8 9 8 6 5 2 10 16 19 15 18 19 23 9 10 27 13 19 21 26 36 28 18 20 16 7 19 41 43 40 37 33
26 26 25 24 23 22 17 13 10 11 13 10 8 7 9 9 25 5 5 4 17 21 24 20 21 22 8 9 20 11 12 24 26 34 35 34 8 13 18 38 40 41 38 35 30
28 27 26 24 23 20 16 13 11 11 12 9 7 7 9 10 3 10 13 10 15 24 23 22 17 21 21 15 12 17 22 23 27 27 33 14 7 10 27 16 39 41 37 34 31
29 28 27 24 21 19 15 13 11 10 9 8 7 8 12 23 2 7 7 9 13 16 19 19 20 26 23 9 24 25 9 15 16 22 14 18 9 8 29 12 41 39 35 31 26
30 30 27 25 21 18 14 13 12 9 7 8 7 8 12 7 6 19 19 13 8 15 19 16 21 24 30 19 14 7 6 8 11 7 13 8 12 8 29 23 33 39 34 30 28
32 31 28 24 20 17 13 13 13 10 8 9 8 9 14 4 13 15 17 21 15 16 20 21 11 7 11 4 6 6 9 9 8 10 6 9 6 10 17 26 28 35 34 28 25
35 33 27 23 18 14 10 17 11 11 5 7 10 8 15 13 15 13 14 16 19 15 13 14 4 3 5 2 13 9 6 8 8 7 9 10 9 8 18 15 26 36 37 32 31
36 34 28 20 14 7 13 17 15 3 7 9 9 13 23 9 5 9 14 16 19 16 8 17 4 8 11 12 11 8 12 11 11 15 12 11 9 16 23 10 14 28 33 39 34
37 35 29 16 5 6 7 12 15 17 21 23 34 40 37 30 31 11 14 17 15 9 6 7 12 11 13 16 17 16 14 15 11 9 14 18 25 11 17 13 21 25 30 38 36
36 35 28 14 3 9 13 13 16 19 8 21 28 29 31 29 32 17 19 20 10 11 12 11 11 15 19 17 17 15 16 11 13 17 8 6 19 19 17 17 34 25 40 39 40
35 34 25 14 2 11 11 16 15 16 4 7 7 10 17 9 7 20 22 21 11 15 13 14 14 18 18 20 15 12 10 13 16 6 7 5 6 6 7 8 5 13 35 38 45
34 32 20 10 10 11 22 22 14 9 4 5 7 10 8 11 7 14 23 23 14 14 10 19 15 17 17 15 10 9 8 7 6 6 5 15 1 8 8 8 13 11 18 44 45
33 27 13 6 13 20 23 12 12 1 6 4 7 6 6 15 16 11 16 18 19 9 12 16 24 17 16 16 12 7 5 8 6 3 6 14 7 8 6 12 10 20 31 32 43
33 18 7 9 18 22 18 15 1 3 14 12 12 14 10 9 14 11 6 8 7 4 6 12 18 19 18 13 11 4 3 3 4 3 8 8 9 14 8 9 9 13 31 38 42
30 8 6 10 17 22 12 3 3 10 16 16 16 16 6 11 13 20 13 10 9 11 10 10 12 16 20 15 8 7 8 6 8 4 8 7 7 15 14 25 31 2 22 38 44
25 5 7 13 20 15 8 1 5 9 14 16 15 7 9 21 13 12 17 17 12 24 11 6 21 16 17 17 13 8 11 8 5 5 3 5 9 17 22 12 22 10 18 22 25
25 11 11 19 19 6 1 4 6 14 12 13 10 10 13 15 13 15 10 14 14 17 17 11 7 7 14 11 14 6 10 4 1 8 9 8 8 9 13 13 9 10 16 21 20
16 9 23 25 13 2 1 5 8 17 20 9 10 9 12 13 16 13 6 10 26 20 16 9 5 6 8 4 3 3 13 6 5 5 6 3 6 1 4 4 6 7 21 24 19
13 5 23 27 9 9 7 10 13 16 17 9 10 11 11 14 5 8 9 14 33 28 13 15 5 4 10 21 16 12 4 8 4 7 5 8 11 8 4 1 19 12 22 21 15
21 7 19 24 4 5 11 12 15 12 12 12 10 9 10 8 7 13 13 23 29 18 12 12 5 6 10 6 7 4 4 7 3 7 9 4 6 2 6 10 17 18 29 14 16
10 4 12 10 16 6 6 7 7 16 9 13 8 9 7 7 9 10 14 13 27 23 17 15 4 6 6 14 15 15 18 9 3 3 4 9 10 16 9 8 11 25 14 20 24
12 6 8 5 9 13 8 8 7 7 11 11 6 9 8 6 9 9 14 13 17 14 8 3 4 10 17 20 19 20 20 13 10 5 6 13 13 15 16 7 19 20 16 8 9
8 8 13 23 15 12 8 5 8 8 7 6 4 9 6 6 7 8 10 8 6 9 10 4 7 12 19 19 18 22 20 15 12 12 14 8 16 1 6 26 31 27 18 14 15
11 15 14 10 12 10 7 9 10 10 9 15 12 7 10 11 11 14 16 20 14 9 10 10 9 10 18 16 17 13 14 12 12 8 11 10 14 6 6 5 3 18 20 15 8
Wind_Direction
355 350 347 345 340 335 329 319 308 306 307 304 292 276 266 263 258 255 247 237 239 230 242 222 244 239 229 252 248 241 245 264 264 275 281 308 328 178 143 126 139 160 150 150 150
351 348 343 342 340 336 331 324 312 306 307 302 291 272 264 271 273 260 250 231 214 215 232 236 231 233 236 246 240 209 204 241 243 268 284 300 327 149 119 115 117 125 141 150 156
349 346 343 341 339 337 332 327 317 312 313 306 287 267 259 276 296 282 267 233 205 224 233 230 244 244 227 239 242 236 238 260 269 276 293 301 312 335 129 113 128 135 146 156 163
348 346 343 339 338 336 334 330 321 318 320 312 286 260 251 255 245 3 275 204 201 218 234 240 238 261 241 229 241 248 246 248 262 271 284 287 302 320 187 152 143 145 151 159 169
349 345 342 338 337 337 334 331 319 315 317 311 286 251 246 251 249 235 327 178 208 218 230 225 231 251 243 247 247 234 245 251 251 275 272 277 285 293 310 158 158 155 156 164 172
350 346 341 338 336 334 331 327 317 313 309 301 283 248 240 255 309 253 234 236 222 219 225 218 227 237 261 246 247 260 249 256 254 231 261 277 268 290 285 209 155 156 161 167 176
350 347 342 338 334 330 327 324 319 311 304 286 280 254 246 247 188 230 248 264 229 219 216 222 228 247 248 258 269 268 275 257 254 244 249 264 284 266 272 185 150 157 162 171 179
348 347 343 338 334 328 323 321 317 304 288 276 270 256 258 267 241 226 238 225 265 208 224 226 231 240 252 272 293 289 291 257 257 255 234 205 249 259 269 168 151 158 166 177 185
347 345 345 340 335 328 326 318 309 303 289 270 263 246 270 314 244 230 222 232 234 234 234 249 267 279 253 285 310 267 244 266 272 257 241 183 229 258 265 163 157 160 169 176 182
349 346 345 341 338 333 349 334 323 291 285 254 238 268 259 249 239 213 228 223 229 228 233 240 251 292 307 214 229 243 259 247 251 261 259 251 232 246 243 223 167 165 172 182 187
348 347 346 344 346 356 25 15 1 0 220 231 232 222 287 274 175 208 223 222 230 242 202 232 176 221 238 246 248 249 236 254 226 231 223 264 245 218 236 188 225 174 176 184 188
349 347 346 349 24 35 1 18 357 321 295 271 253 255 257 270 282 214 216 219 218 239 237 233 231 224 234 243 239 247 255 265 283 268 217 224 232 240 207 223 203 211 189 188 192
349 346 344 352 357 15 358 360 344 333 286 291 250 239 243 239 251 233 207 230 218 220 238 231 234 233 233 247 249 239 231 248 249 274 267 225 241 241 206 214 225 217 208 199 195
349 343 347 360 354 358 352 340 340 333 303 274 201 217 238 197 279 241 238 210 234 234 229 247 252 253 251 239 234 253 257 245 240 248 245 157 262 244 188 196 225 214 202 200 202
348 343 350 352 4 2 332 325 326 321 321 181 122 141 172 170 241 207 219 227 218 231 225 254 254 254 261 263 246 241 275 271 268 248 293 287 95 257 179 208 228 247 225 208 206
346 343 357 25 19 343 324 335 324 291 249 220 144 192 203 209 234 257 177 216 255 225 254 266 276 267 271 279 254 243 250 293 290 216 248 246 186 253 229 208 218 229 239 220 204
346 348 13 26 1 338 334 338 7 229 338 357 356 348 351 340 330 319 209 194 201 243 267 270 264 275 276 286 291 183 156 302 311 281 225 235 251 243 259 238 209 221 236 226 209
348 358 21 12 337 339 355 341 254 307 25 346 343 321 315 319 334 338 310 296 215 208 229 248 269 242 260 254 231 238 175 182 219 219 256 274 258 257 237 261 269 292 268 212 204
355 10 12 340 320 346 343 300 14 17 354 346 330 337 6 348 357 352 345 360 42 44 1 307 265 261 255 252 244 243 246 210 184 267 296 249 277 262 253 250 243 144 127 132 141
351 355 6 337 331 348 309 250 64 0 10 3 15 5 344 345 346 356 324 20 5 17 1 338 304 299 300 307 269 188 235 235 264 201 245 258 267 265 312 205 151 126 122 116 117
357 332 345 333 330 275 295 43 18 10 34 19 358 334 3 3 344 343 342 356 19 356 348 15 341 323 326 248 303 262 271 212 147 178 196 227 262 119 343 55 358 143 133 126 123
8 337 354 337 37 3 27 3 330 30 36 13 25 10 12 334 316 326 322 1 22 10 4 7 280 272 266 293 303 305 286 349 215 255 204 194 249 276 348 146 231 164 130 138 141
342 299 357 26 43 5 355 342 0 23 20 22 8 12 352 345 336 355 348 335 6 8 19 354 332 329 330 331 326 298 49 28 123 12 297 177 257 162 355 6 71 64 143 145 139
341 329 352 355 18 13 341 325 321 29 22 12 359 344 352 352 344 322 332 351 347 344 7 4 314 328 304 316 322 312 317 345 122 143 294 271 315 311 40 11 10 37 61 66 50
8 14 19 321 331 315 299 296 348 0 9 358 348 344 359 339 319 320 329 331 329 327 1 76 287 317 324 323 318 306 305 315 300 251 166 274 293 298 348 27 4 35 24 92 92
25 352 326 302 316 294 296 31 1 346 341 307 304 333 323 296 281 312 326 324 312 314 309 283 262 301 301 310 308 306 304 283 283 293 297 231 269 334 350 360 349 352 3 35 45
6 348 324 295 305 314 2 352 324 302 297 339 338 318 294 287 328 329 315 297 280 261 265 272 268 275 276 291 306 303 281 301 297 290 302 281 276 284 315 117 265 324 331 346 38